Back to catalog

SCOUT G-1 DEB

AlivePO
NORAD 43332·DEBRIS·🇺🇸 United States

Launched Apr 26, 1988 from Vandenberg Space Force Base

Loading…

Next Passes (next 24 hours)

TLE

StaleSource: Space-Track

Epoch: Aug 28, 2026, 03:51 UTC

1 43332U 88033N   26240.16082522  .00000184  00000-0  32493-3 0  9994
2 43332  90.3233  21.4025 0181252 354.5034   5.4114 13.33832831486136

Track SCOUT G-1 DEB in real time with AllMySat

Download on the App Store